Content
SEND FEEDBACK

Daily
Averages
Monthly
Summary
United States of America

CHICAGO, ILLINOIS


Home > North America > United States > Illinois
Elevation: 674 feet     Latitude: 41 59N     Longitude: 087 54W

WEATHER
 
SELECT A DAY
Number of Records: 194,774;   Date Range: 7/8/95 - 7/20/14
 
SHARE

PRINT THIS DATA

[ ← Previous Day ]
WEATHER ALMANAC - JANUARY 10, 2013
[ Next Day → ]
[ °C ]   °F
Weather ElementAverageHighLow
Temperature35.6 °F42.1 °F (2:52 pm)21.9 °F (6:52 am)
Dewpoint30.9 °F39.9 °F (11:52 pm)19 °F (1:52 am)
Humidity84.2 %100 % (9:59 pm)53 % (2:52 pm)
Barometer30.19 in30.53 in (1:52 am)29.92 in (11:31 pm)
Wind Speed5.9 mph11.5 mph (6:52 pm)
Weather ElementAverage
Visibility6.7 mi
Wind DirectionESE (96.5 °)

Weather ElementTotal
Precipitation1.07 in
Heating Degree Days33 (Base 65)
Averaged from 26 records on January 10, 2013
WEATHER CONDITIONS BREAKOUT
WIND DIRECTION BREAKOUT
WEATHER BY HOUR - JANUARY 10, 2013
[ °C ]   °F
Local TimeTemperatureDewpointHumidityBarometerVisibilityWind DirectionWind SpeedGust SpeedPrecipitationEventsConditions
1:52 AM24.1 °F19.0 °F81 %30.53 in10.0 miCalmClear
2:52 AM23.0 °F19.0 °F85 %30.53 in10.0 miCalmClear
3:52 AM23.0 °F19.0 °F85 %30.52 in10.0 miCalmClear
4:52 AM23.0 °F19.0 °F85 %30.50 in10.0 miNNE (30°)3.5 mphClear
6:52 AM21.9 °F19.0 °F89 %30.52 in10.0 miCalmClear
8:52 AM30.9 °F26.1 °F82 %30.49 in10.0 miCalmClear
9:52 AM39.9 °F28.9 °F65 %30.46 in10.0 miESE (110°)8.1 mphClear
10:52 AM39.9 °F27.0 °F60 %30.43 in10.0 miSE (130°)9.2 mphClear
2:52 PM42.1 °F26.1 °F53 %30.26 in10.0 miESE (110°)9.2 mphClear
3:52 PM41.0 °F28.0 °F60 %30.24 in8.0 miESE (120°)10.4 mph0.00 inRainLight Rain
4:52 PM39.9 °F28.9 °F65 %30.21 in10.0 miEast (100°)8.1 mph0.01 inRainLight Rain
5:52 PM37.9 °F32.0 °F79 %30.17 in9.0 miESE (120°)9.2 mph0.01 inRainLight Rain
5:59 PM37.4 °F32.0 °F81 %30.14 in7.0 miESE (110°)9.2 mph0.00 inRainLight Rain
6:52 PM37.9 °F33.1 °F83 %30.13 in10.0 miESE (120°)11.5 mph0.00 inOvercast
7:52 PM37.9 °F34.0 °F86 %30.09 in5.0 miSE (130°)9.2 mph0.01 inRainLight Rain
8:52 PM37.9 °F35.1 °F89 %30.04 in5.0 miESE (110°)5.8 mph0.01 inRainLight Rain
9:09 PM37.4 °F35.6 °F93 %30.01 in5.0 miESE (120°)5.8 mph0.00 inRainLight Rain
9:32 PM37.4 °F35.6 °F93 %29.98 in2.0 miEast (100°)4.6 mph0.07 inRainHeavy Rain
9:52 PM37.9 °F37.0 °F97 %30.01 in2.0 miSE (140°)4.6 mph0.16 inRainHeavy Rain
9:59 PM37.4 °F37.4 °F100 %29.98 in1.8 miESE (120°)5.8 mph0.05 inRainHeavy Rain
10:12 PM39.2 °F37.4 °F93 %29.97 in2.0 miSE (130°)5.8 mph0.12 inRainHeavy Rain
10:47 PM39.2 °F37.4 °F93 %29.94 in4.0 miSE (130°)6.9 mph0.24 inOvercast
10:52 PM39.0 °F37.9 °F96 %29.95 in4.0 miSE (130°)5.8 mph0.24 inOvercast
11:05 PM39.2 °F39.2 °F100 %29.93 in2.5 miSSE (150°)6.9 mph0.01 inRainLight Rain
11:31 PM39.2 °F39.2 °F100 %29.92 in3.0 miSSE (150°)6.9 mph0.06 inRainLight Rain
11:52 PM41.0 °F39.9 °F96 %29.92 in3.0 miSSE (150°)8.1 mph0.08 inRainLight Rain
Hourly data recorded from KPWK, located miles away from Chicago, Illinois







STORIES FROM OUR PARTNERS